Regional Weather Roundup
Issued by NWS San Diego, CA

Home | Current Version | Previous Version | Text Only | Print | Product List | Glossary On
Versions: 1 2 3 4 5 6 7 8 9 10 11 12 13 14 15 16 17 18 19 20 21 22 23 24 25 26 27 28 29 30 31 32 33 34 35 36 37 38 39 40 41 42 43 44 45 46 47 48 49 50
000
ASUS46 KSGX 271211
RWRSGX

SAN DIEGO HOURLY WEATHER ROUNDUP
NATIONAL WEATHER SERVICE SAN DIEGO CA
500 AM PDT WED MAY 27 2015

NOTE: "FAIR" INDICATES FEW OR NO CLOUDS BELOW 12,000 FEET WITH NO
SIGNIFICANT WEATHER AND/OR OBSTRUCTIONS TO VISIBILITY.

CAZ042-043-060-061-PZZ750-775-271300-

GREATER SAN DIEGO AREA

CITY           SKY/WX    TMP DP  RH WIND       PRES   REMARKS
LINDBERGH FLD  CLOUDY    61  54  77 NW6       29.99S
POINT LOMA       N/A     58  52  81 NW12        N/A
NATIONAL CITY    N/A     60  56  85 NW3       29.99R
CHULA VISTA      N/A     60  56  89 NW2       29.91S
IMPERIAL BEACH CLOUDY    61  55  81 NW6       29.99R
BROWN FIELD    CLOUDY    57  56  96 CALM      29.98R FOG
MIRAMAR MCAS   CLOUDY    61  55  81 NW7       29.98S
MONTGOMERY FLD CLOUDY    58  56  93 NW6       29.98S FOG

$$

NORTH SAN DIEGO COUNTY

CITY           SKY/WX    TMP DP  RH WIND       PRES   REMARKS
CAMP PENDLETON CLOUDY    61  55  81 CALM      29.97S
OCEANSIDE AP   CLOUDY    61  56  83 NW3       29.97R
OCEANSIDE HBR    N/A     62  58  87 N3        30.00S
VISTA            N/A     59  53  80 CALM      29.96R
CARLSBAD       CLOUDY    59  57  93 W3        29.97S
DEL MAR          N/A     59  57  91 CALM      30.00S
LA JOLLA SCRIP   N/A    N/A N/A N/A W3        29.95S
FALLBROOK        N/A     59  59 100 CALM      29.97S
ESCONDIDO        N/A     59  56  89 W2        29.99S
SAN MARCOS       N/A     58  55  88 CALM      29.96S
POWAY            N/A     58  55  89 CALM      30.00R

$$

EAST SAN DIEGO COUNTY

CITY           SKY/WX    TMP DP  RH WIND       PRES   REMARKS
RAMONA         CLOUDY    55  54  96 W7        29.98R FOG
SANTEE LAKES     N/A     58  56  90 NW3       29.98R
LA MESA          N/A     58  55  90 NW8       29.92R
JAMUL            N/A     55  54  95 W3        29.97R
DESCANSO N       N/A     45  43  93 CALM      29.84S
MT. LAGUNA OBS   N/A     57   9  14 CALM      29.65F
CAMPO            N/A     52  50  93 CALM      29.94S

$$

ORANGE COUNTY AND THE LOS ANGELES BASIN

CITY           SKY/WX    TMP DP  RH WIND       PRES   REMARKS
JOHN WAYNE AP  CLOUDY    61  54  77 CALM      29.97F
LAKE FOREST FR   N/A     57  53  86 CALM      29.88S
SANTA ANA        N/A     63  56  77 CALM      29.93S
HUNTINGTON BCH   N/A     61  56  85 W3        29.99F
LOS ALAMITOS   CLOUDY    61  55  81 SW5       29.97F
FULLERTON      CLOUDY    63  53  70 CALM      29.96F
LONG BEACH     CLOUDY    62  54  74 NW3       29.97F
L.A. AP        CLOUDY    58  54  86 N3        29.98F
L.A. DOWNTOWN  CLOUDY    59  54  83 CALM      29.97F

$$

THE INLAND EMPIRE

CITY           SKY/WX    TMP DP  RH WIND       PRES   REMARKS
CORONA         MOCLDY    60  54  80 CALM      29.99R
CHINO          CLOUDY    61  54  77 W6        29.99S
ONTARIO        CLOUDY    59  53  80 NW6       29.97F HAZE
RIVERSIDE AP   CLOUDY    59  54  83 W6        29.98S
RIV CYN CREST    N/A     59  59 100 NW5         N/A
MORENO VALLEY    N/A     56  56  97 W2        29.95S
MARCH ARB      CLOUDY    57  55  91 NW7       29.98R
HORSETHIEF CYN   N/A     56  53  89 CALM      29.94S
PERRIS           N/A     57  55  93 W2          N/A
MENIFEE          N/A     60  57  90 NW1       30.03S
HEMET EAST       N/A     57  52  84 CALM      29.94R
FRENCH VALLEY  CLOUDY    57  54  88 CALM      29.98R
TEMECULA         N/A     59  58  95 NW2       29.95R

$$

SAN BERNARDINO AND RIVERSIDE COUNTY MOUNTAINS

CITY           SKY/WX    TMP DP  RH WIND       PRES   REMARKS
BIG BEAR AP    CLEAR     34  27  75 CALM      30.13S
ANGELUS OAKS     N/A     48  31  52 CALM      29.83S
PINE COVE        N/A     54  13  19 CALM      29.86S

$$

SOUTHERN DESERT INCLUDING THE COACHELLA VALLEY

CITY           SKY/WX    TMP DP  RH WIND       PRES   REMARKS
PALM SPRINGS   PTCLDY    67  53  61 CALM      29.87R
THOUSAND PALMS   N/A     68  52  57 NW14      29.83S
PALM DESERT      N/A     67  54  63 CALM        N/A
THERMAL        MOCLDY    69  53  56 N8        29.81S
BLYTHE         CLOUDY    70  48  45 CALM      29.83S
IMPERIAL AP    CLEAR     70  55  59 SE6       29.81S
EL CENTRO NAS  CLEAR     67  53  61 SE5       29.83R
YUMA AZ        MOCLDY    71  38  29 N5        29.83S

$$

UPPER DESERT

CITY           SKY/WX    TMP DP  RH WIND       PRES   REMARKS
VICTORVILLE AP CLEAR     57  39  51 SE7       29.97R
HESPERIA         N/A     53  43  69 CALM      30.00S
APPLE VALLEY     N/A     53  42  66 CALM      30.04S
PALMDALE       CLEAR     58  44  60 S9        29.96R
LANCASTER      CLEAR     59  45  59 SW7       29.95R
EDWARDS AFB    CLEAR     58  42  56 SW12      29.91S
DAGGETT        PTCLDY    65  33  30 W10       29.91S
29 PALMS N     PTCLDY    65  39  38 W13       29.98R
NEEDLES        PTCLDY    75  35  23 CALM      29.85S

$$

REGIONAL REPORTS

CITY           SKY/WX    TMP DP  RH WIND       PRES   REMARKS
SANTA BARBARA  CLEAR     56  52  86 NE5       29.97R
SANDBERG       CLEAR     56  45  66 NW16      30.03S
LAS VEGAS NV   MOCLDY    72  35  25 SW8       29.87R
PHOENIX AZ     MOCLDY    75  41  29 CALM      29.87S
TIJUANA        CLOUDY    57  54  88 W8        29.99S FOG
ENSENADA NW      N/A     60  32  34 NW3       29.93F

$$

OFFSHORE ISLANDS

CITY           SKY/WX    TMP DP  RH WIND       PRES   REMARKS
CATALINA ARPT  FOG       52  51  97 E3        29.99S VSB 1
SAN NICOLAS IS CLOUDY   N/A N/A N/A W13       29.99R

$$

MARINE AND OFFSHORE BUOY REPORTS

STATION/POSITION SKY/WX   TEMP    WIND        PRES    SWELL
                          AIR SEA DIR/SP/G            HT/PER/DIR
                          (F)     (DEG/KT/KT) (MB)    (FT/S/D)
TANNER BANKS               59 61  320/ 16/ 17 1015.7F   5/250/16
S CLEMENTE BASIN           60 62  300/ 12/ 14 1015.0F   3/220/15
SAN NICOLAS IS.               60                N/A     3/220/17
SO. S. ROSA ISLA           57 59  320/ 16/ 19 1014.8F   3/14
W. S. BARBARA CH           55 57  330/ 16/ 19 1014.7S   3/260/16
M. S. BARBARA CH           57 58  150/  4/  6 1015.0S
S. MONICA BASIN            59 63   40/  4/  6 1015.1S   3/200/14
S PEDRO CHANNEL               62                N/A     2/200/14
DANA POINT                    64                N/A     3/190/14
OCEANSIDE OFFSHR              65                N/A     3/210/20
TORREY PINES OTR              65                N/A     3/230/20
LA JOLLA 1                 61 65  310/  4/  7 1014.9F
MISSION BAY BUOY              65                N/A     3/220/17
SAN DIEGO BAY                 67              1015.4F
POINT LOMA SOUTH              63                N/A     3/220/20

$$



USA.gov is the U.S. government's official web portal to all federal, state and local government web resources and services.